Home > Products > Valid Products > RWR

000
ASUS45 KBOU 271907
RWRCO

WEATHER ROUNDUP FOR COLORADO
NATIONAL WEATHER SERVICE DENVER/BOULDER CO
100 PM MDT FRI MAY 27 2016

NOTE: "FAIR" INDICATES FEW OR NO CLOUDS BELOW 12000 FEET WITH NO
SIGNIFICANT WEATHER AND/OR OBSTRUCTIONS TO VISIBILITY.

COZ001>005-013-030-031-272000-
...NORTHWEST COLORADO...

CITY           SKY/WX    TMP DP  RH WIND       PRES   REMARKS
CRAIG          PTSUNNY   56  38  50 SW10      29.96F
HAYDEN         FAIR      57  34  41 W7        29.95F
MEEKER         CLOUDY    50  41  71 CALM      29.96F
MOUNT WERNER   NOT AVBL
STEAMBOAT SPGS CLOUDY    46  38  75 N13G24    29.98S
WALDEN         FAIR      54  28  37 N17G30    30.00S
$$

COZ006>008-011-272000-
...WEST CENTRAL VALLEYS...

CITY           SKY/WX    TMP DP  RH WIND       PRES   REMARKS
GRAND JUNCTION PTSUNNY   67  34  29 N13       29.89F
MONTROSE       FAIR      63  32  31 VRB3      29.95F
EAGLE          PTSUNNY   55  34  44 W8        29.97F
RIFLE          PTSUNNY   63  35  35 W14       29.90F
DELTA          LGT RAIN  65  41  41 SW6       29.92F
NUCLA          FAIR      66  32  28 N8G21     29.98F
$$

COZ017>023-064>068-272000-
...SOUTHWEST COLORADO...

CITY           SKY/WX    TMP DP  RH WIND       PRES   REMARKS
DURANGO        LGT RAIN  56  33  42 VRB3G21   29.94S
CORTEZ         FAIR      67  32  27 W21G28    29.93F
PAGOSA SPRINGS CLOUDY    56  28  34 W8        29.97S
TELLURIDE      CLOUDY    50  30  46 W6        30.07F
WOLF CREEK PAS FAIR      37  27  65 SW14G21   30.16S
$$

COZ009-010-012-014-032>034-037-058>063-272000-
...CENTRAL COLORADO...

CITY           SKY/WX    TMP DP  RH WIND       PRES   REMARKS
ASPEN          PTSUNNY   54  31  41 NE9       29.98F
BUENA VISTA    PTSUNNY   54  24  30 NW16      29.95S
COPPER MTN     NOT AVBL
BERTHOUD PASS  CLOUDY    27  16  63 N13G33    30.11F THUNDER WCI  16
COTTONWOOD PAS PTSUNNY   48  21  34 SW12G23   30.03F
GUNNISON       FAIR      57  25  28 N12       29.99F
KREMMLING      PTSUNNY   54  32  43 NW13      29.98F
LEADVILLE      PTSUNNY   44  26  49 N15G24    30.03S
SALIDA         PTSUNNY   57  27  31 W8        30.01F
SUNLIGHT       PTSUNNY   41  30  65 NW7       30.14F
WILKERSON PASS PTSUNNY   36  30  80 N9        30.09F
$$

COZ069>075-272000-
...SAN LUIS VALLEY/SANGRE DE CRISTO MOUNTAINS...

CITY           SKY/WX    TMP DP  RH WIND       PRES   REMARKS
ALAMOSA        FAIR      54  36  50 N6        29.96F
LA VETA PASS   PTSUNNY   39  36  87 S7G16     30.04R
SAGUACHE       FAIR      57  28  33 N16G24    29.98S
$$

COZ035-036-038>040-272000-
...NORTHERN COLORADO FRONT RANGE...

CITY           SKY/WX    TMP DP  RH WIND       PRES   REMARKS
DENVER INTL AP TSTM      48  45  89 E13       29.91R FOG
DMNS CITY PARK   N/A     56  38  50 NE16G33   29.89F
AURORA         LGT RAIN  54  48  81 NE18G26   29.92F
FRONT RANGE AP TSTM      46  45  93 NE12G23   29.93R
ERIE MUNI ARPT PTSUNNY   59  43  55 NE12      29.89F
BOULDER MUN AP NOT AVBL
CENTENNIAL     CLOUDY    54  41  61 NE23G31   29.91F THUNDER
BROOMFIELD     PTSUNNY   57  41  54 NE13G21   29.91S
FORT COLLINS   PTSUNNY   30 N/A N/A NW12G25   29.90S WCI  21
LONGMONT       FAIR      67  43  41 NE14G21   29.89F
$$

COZ041-046-047-076>085-087-088-272000-
...PIKES PEAK/PALMER DIVIDE AND SOUTHERN FOOTHILLS...

CITY           SKY/WX    TMP DP  RH WIND       PRES   REMARKS
COLO. SPRINGS  PTSUNNY   55  39  54 N32G45    29.90R
A. F. ACADEMY  PTSUNNY   50  39  66 N26G40    29.90F
SCHRIEVER AFB  NOT AVBL
ELLICOTT       LGT RAIN N/A N/A N/A N33G41    29.87R
FALCON         LGT RAIN  46  40  80 N28G40    29.93S
FORT CARSON    PTSUNNY   57  42  56 N31G39    29.87R
LIMON          LGT RAIN  49  46  90 N25G37    29.84R
MONUMENT HILL  LGT RAIN  39  36  87 N17G39    29.95S
TRINIDAD       CLOUDY    60  35  39 NW20G26   29.86R
$$

COZ042>045-048>051-090-091-272000-
...NORTHEAST COLORADO...

CITY           SKY/WX    TMP DP  RH WIND       PRES   REMARKS
GREELEY ARPT   PTSUNNY   57  46  67 E16G24    29.89S
AKRON          CLOUDY    54  47  77 N22G32    29.84S
BURLINGTON     CLOUDY    57  49  74 NE20      29.76R
WRAY           CLOUDY    61  52  72 NE12      29.80S
STERLING       FAIR      59  46  63 NE17G23   29.84F
HOLYOKE        NOT AVBL
FORT MORGAN    FAIR      60  47  63 N12       29.86F
$$

COZ086-089-092>099-272000-
...SOUTHEAST COLORADO...

CITY           SKY/WX    TMP DP  RH WIND       PRES   REMARKS
PUEBLO         LGT RAIN  61  44  53 N30G38    29.84R
LA JUNTA       CLOUDY    59  47  64 NW24G33   29.78F
LAMAR          CLOUDY    65  46  50 N9        29.67F
SPRINGFIELD      N/A     55  43  63 NW23G30   29.76F
$$






000
ASUS45 KBOU 271307
RWRCO

WEATHER ROUNDUP FOR COLORADO
NATIONAL WEATHER SERVICE DENVER/BOULDER CO
700 AM MDT FRI MAY 27 2016

NOTE: "FAIR" INDICATES FEW OR NO CLOUDS BELOW 12000 FEET WITH NO
SIGNIFICANT WEATHER AND/OR OBSTRUCTIONS TO VISIBILITY.

COZ001>005-013-030-031-271400-
...NORTHWEST COLORADO...

CITY           SKY/WX    TMP DP  RH WIND       PRES   REMARKS
CRAIG          FAIR      39  35  86 E3        30.00R
HAYDEN         FAIR      37  32  81 CALM      30.00R
MEEKER         FAIR      44  39  82 CALM      29.99R
MOUNT WERNER   NOT AVBL
STEAMBOAT SPGS PTSUNNY   37  35  91 CALM      30.00R
WALDEN         FAIR      36  32  87 E5        30.02S
$$

COZ006>008-011-271400-
...WEST CENTRAL VALLEYS...

CITY           SKY/WX    TMP DP  RH WIND       PRES   REMARKS
GRAND JUNCTION FAIR      50  39  66 CALM      29.93R
MONTROSE       FAIR      46  39  76 S3        29.99R
EAGLE          CLOUDY    43  41  93 CALM      30.03R
RIFLE          FAIR      45  39  79 E6        29.96R
DELTA          FAIR      48  40  72 CALM      29.96R
NUCLA          FAIR      43  34  70 SE5       30.03R
$$

COZ017>023-064>068-271400-
...SOUTHWEST COLORADO...

CITY           SKY/WX    TMP DP  RH WIND       PRES   REMARKS
DURANGO        FAIR      39  32  76 CALM      29.95R
CORTEZ         FAIR      37  31  78 E5        29.98R
PAGOSA SPRINGS FAIR      34  33  98 CALM      29.99R
TELLURIDE      CLOUDY    36  35  97 CALM      30.07R
WOLF CREEK PAS PTSUNNY   27  23  86 N9        30.11R WCI  17
$$

COZ009-010-012-014-032>034-037-058>063-271400-
...CENTRAL COLORADO...

CITY           SKY/WX    TMP DP  RH WIND       PRES   REMARKS
ASPEN          PTSUNNY   40  36  86 CALM      30.00R
BUENA VISTA    FAIR      42  33  72 NW10      29.95S
COPPER MTN     NOT AVBL
BERTHOUD PASS  HAZE      23  12  63 N20G32    30.07S VSB<1/4 WCI   8
COTTONWOOD PAS PTSUNNY   39  28  65 W9        30.01R
GUNNISON       FAIR      37  32  81 NW3       30.01R
KREMMLING      PTSUNNY   41  34  75 CALM      30.00R
LEADVILLE      CLOUDY    33  28  81 N12       30.01R WCI  24
MONARCH PASS   SNOW      28  27  93 W13G18    30.18R VSB<1/4 WCI  18
SALIDA         FAIR      42  37  85 SW5       30.02R
SUNLIGHT       FOG       32  32 100 NW5       30.13R VSB<1/4 WCI  27
WILKERSON PASS CLOUDY    28  27  93 N14G25    30.05R WCI  17
$$

COZ069>075-271400-
...SAN LUIS VALLEY/SANGRE DE CRISTO MOUNTAINS...

CITY           SKY/WX    TMP DP  RH WIND       PRES   REMARKS
ALAMOSA        CLOUDY    37  35  92 CALM      29.97R
LA VETA PASS   LGT SNOW  30  28  93 S6G21     29.98R VSB 3/4 WCI  24
SAGUACHE       CLOUDY    34  34 100 SE3       29.98S
$$

COZ035-036-038>040-271400-
...NORTHERN COLORADO FRONT RANGE...

CITY           SKY/WX    TMP DP  RH WIND       PRES   REMARKS
DENVER INTL AP PTSUNNY   48  41  76 NW17      29.84R
DMNS CITY PARK   N/A     51  39  64 N10G17    29.86R
AURORA         PTSUNNY   46  44  91 NW16      29.86R
FRONT RANGE AP CLOUDY    46  43  87 N13G21    29.86
ERIE MUNI ARPT FAIR      51  40  65 NW6       29.86R
BOULDER MUN AP NOT AVBL
CENTENNIAL     PTSUNNY   47  41  80 NW13      29.86S
BROOMFIELD     PTSUNNY   50  41  71 NW10      29.88R
FORT COLLINS   FAIR      50  39  66 NW10      29.87R
LONGMONT       FAIR      55  39  55 NW7       29.88S
$$

COZ041-046-047-076>085-087-088-271400-
...PIKES PEAK/PALMER DIVIDE AND SOUTHERN FOOTHILLS...

CITY           SKY/WX    TMP DP  RH WIND       PRES   REMARKS
COLO. SPRINGS  CLOUDY    45  42  89 NW14      29.84F
A. F. ACADEMY  FAIR      45  39  81 NW23G32   29.84F
SCHRIEVER AFB  NOT AVBL
ELLICOTT       LGT RAIN N/A N/A N/A N15       29.81S
FALCON         FAIR      42  39  88 NW17G29   29.84F
FORT CARSON    MOSUNNY   47  39  76 W6        29.82F
LIMON          LGT RAIN  44  42  93 NW22G30   29.78S FOG
MONUMENT HILL  CLOUDY    39  37  93 NW18G26   29.88S
TRINIDAD       LGT RAIN  44  40  85 W9        29.88R
$$

COZ042>045-048>051-090-091-271400-
...NORTHEAST COLORADO...

CITY           SKY/WX    TMP DP  RH WIND       PRES   REMARKS
GREELEY ARPT   FAIR      50  41  71 N15       29.84R
AKRON          LGT RAIN  48  46  93 N22       29.79R FOG
BURLINGTON     FAIR      51  47  86 W5        29.73F
WRAY           CLOUDY   N/A N/A N/A E7        29.77R
STERLING       RAIN      50  50 100 N9G16     29.79R
HOLYOKE        NOT AVBL
FORT MORGAN    RAIN      48  46  92 N14       29.83R
$$

COZ086-089-092>099-271400-
...SOUTHEAST COLORADO...

CITY           SKY/WX    TMP DP  RH WIND       PRES   REMARKS
PUEBLO         LGT RAIN  48  44  86 SW12      29.83S
LA JUNTA       RAIN      47  43  86 W20       29.81S
LAMAR          CLOUDY    51  45  79 W15       29.76S
SPRINGFIELD      N/A     50  40  68 NW21G29   29.80F
$$






000
ASUS45 KBOU 271107
RWRCO

WEATHER ROUNDUP FOR COLORADO
NATIONAL WEATHER SERVICE DENVER/BOULDER CO
500 AM MDT FRI MAY 27 2016

NOTE: "FAIR" INDICATES FEW OR NO CLOUDS BELOW 12000 FEET WITH NO
SIGNIFICANT WEATHER AND/OR OBSTRUCTIONS TO VISIBILITY.

COZ001>005-013-030-031-271200-
...NORTHWEST COLORADO...

CITY           SKY/WX    TMP DP  RH WIND       PRES   REMARKS
CRAIG          FAIR      41  36  82 W5        29.97S
HAYDEN         FAIR      39  34  81 E5        29.98R
MEEKER         CLOUDY    43  40  89 CALM      29.98S
MOUNT WERNER   NOT AVBL
STEAMBOAT SPGS MOCLDY    38  35  89 CALM      29.98S
WALDEN         MOCLDY    36  32  87 N8        30.00S
$$

COZ006>008-011-271200-
...WEST CENTRAL VALLEYS...

CITY           SKY/WX    TMP DP  RH WIND       PRES   REMARKS
GRAND JUNCTION CLOUDY    50  40  68 S3        29.91F
MONTROSE       CLOUDY    45  37  73 S5        29.97R
EAGLE          FAIR      43  41  93 CALM      29.99S
RIFLE          CLOUDY    49  39  68 CALM      29.95R
DELTA          CLOUDY    50  40  68 E5        29.94S
NUCLA          FAIR      41  34  75 CALM      30.00S
$$

COZ017>023-064>068-271200-
...SOUTHWEST COLORADO...

CITY           SKY/WX    TMP DP  RH WIND       PRES   REMARKS
DURANGO        FAIR      44  30  57 CALM      29.92S
CORTEZ         FAIR      36  31  82 E5        29.96R
PAGOSA SPRINGS FAIR      38  36  91 CALM      29.97S
TELLURIDE      CLOUDY    34  34 100 CALM      30.05S
WOLF CREEK PAS   N/A     27  25  93 NW7       30.08S WCI  19
$$

COZ009-010-012-014-032>034-037-058>063-271200-
...CENTRAL COLORADO...

CITY           SKY/WX    TMP DP  RH WIND       PRES   REMARKS
ASPEN          CLOUDY    39  37  92 CALM      29.98S
BUENA VISTA    FAIR      38  37  95 CALM      29.93S
COPPER MTN     NOT AVBL
BERTHOUD PASS  HAZE      23  14  68 N17G38    30.04F VSB<1/4 WCI   9
COTTONWOOD PAS MOCLDY    37  30  75 W12G17    29.98S
GUNNISON       FAIR      39  34  81 NW3       29.98F
KREMMLING      CLOUDY    41  34  75 W6        29.98S
LEADVILLE      MOCLDY    33  28  81 N10       29.98F WCI  25
MONARCH PASS   HVY SNOW  28  27  93 W12G18    30.14F VSB<1/4 WCI  18
SALIDA         CLOUDY    42  39  90 NW3       29.99F
SUNLIGHT       FOG       32  32 100 W6        30.11S VSB 1/2 WCI  26
WILKERSON PASS CLOUDY    28  28 100 N15G29    30.01F FOG     WCI  17
$$

COZ069>075-271200-
...SAN LUIS VALLEY/SANGRE DE CRISTO MOUNTAINS...

CITY           SKY/WX    TMP DP  RH WIND       PRES   REMARKS
ALAMOSA        LGT RAIN  36  35  96 SW5       29.93F
LA VETA PASS   HVY SNOW  30  28  93 S9G21     29.95S VSB 1/4 WCI  22
SAGUACHE       CLOUDY    36  36 100 SE7       29.95S FOG
$$

COZ035-036-038>040-271200-
...NORTHERN COLORADO FRONT RANGE...

CITY           SKY/WX    TMP DP  RH WIND       PRES   REMARKS
DENVER INTL AP CLOUDY    47  44  90 W9        29.84F
DMNS CITY PARK   N/A     47  46  96 SW3       29.85F
AURORA         LGT RAIN  45  45 100 W5        29.85F
FRONT RANGE AP NOT AVBL
ERIE MUNI ARPT MOCLDY    48  45  88 N7        29.85F
BOULDER MUN AP NOT AVBL
CENTENNIAL     LGT RAIN  45  42  89 W7        29.86F
BROOMFIELD     CLOUDY    46  45  93 N9        29.87S
FORT COLLINS   FAIR      50  39  66 N14       29.87R
LONGMONT       CLOUDY    52  43  70 N10       29.88R
$$

COZ041-046-047-076>085-087-088-271200-
...PIKES PEAK/PALMER DIVIDE AND SOUTHERN FOOTHILLS...

CITY           SKY/WX    TMP DP  RH WIND       PRES   REMARKS
COLO. SPRINGS  LGT RAIN  41  39  93 NW17G26   29.86F
A. F. ACADEMY  RAIN      39  39 100 N9        29.85F
SCHRIEVER AFB  NOT AVBL
ELLICOTT       LGT RAIN N/A N/A N/A N15G24    29.82F
FALCON         LGT RAIN  37  36  93 NW14G22   29.85F
FORT CARSON    LGT RAIN  42  38  87 NW17G26   29.84F
LIMON          LGT RAIN  43  40  89 N22G37    29.78F
MONUMENT HILL  LGT RAIN  37  36  93 N15G22    29.88F
TRINIDAD       LGT RAIN  43  39  86 W8        29.86S
$$

COZ042>045-048>051-090-091-271200-
...NORTHEAST COLORADO...

CITY           SKY/WX    TMP DP  RH WIND       PRES   REMARKS
GREELEY ARPT   FAIR      50  43  76 N21       29.83S
AKRON          RAIN      48  46  93 NW21      29.76S FOG
BURLINGTON     FAIR      48  45  89 W9        29.71S
WRAY           FAIR      52  52 100 NE13      29.70F
STERLING       RAIN      50  48  93 N13       29.75F
HOLYOKE        NOT AVBL
FORT MORGAN    LGT RAIN  48  46  93 NW7       29.80R
$$

COZ086-089-092>099-271200-
...SOUTHEAST COLORADO...

CITY           SKY/WX    TMP DP  RH WIND       PRES   REMARKS
PUEBLO         RAIN      49  44  83 NW10      29.84R
LA JUNTA       NOT AVBL
LAMAR          CLOUDY    51  43  74 W8        29.73S
SPRINGFIELD      N/A     45  39  79 W8        29.78R
$$






000
ASUS45 KBOU 270307
RWRCO

WEATHER ROUNDUP FOR COLORADO
NATIONAL WEATHER SERVICE DENVER/BOULDER CO
900 PM MDT THU MAY 26 2016

NOTE: "FAIR" INDICATES FEW OR NO CLOUDS BELOW 12000 FEET WITH NO
SIGNIFICANT WEATHER AND/OR OBSTRUCTIONS TO VISIBILITY.

COZ001>005-013-030-031-270400-
...NORTHWEST COLORADO...

CITY           SKY/WX    TMP DP  RH WIND       PRES   REMARKS
CRAIG          MOCLDY    49  40  71 SE6       29.95R
HAYDEN         MOCLDY    48  34  57 NW20G25   29.96S
MEEKER         CLOUDY    51  35  54 SE9       29.95R
MOUNT WERNER   NOT AVBL
STEAMBOAT SPGS CLOUDY    49  35  58 E10       29.98R
WALDEN         FAIR      41  32  70 CALM      30.02S
$$

COZ006>008-011-270400-
...WEST CENTRAL VALLEYS...

CITY           SKY/WX    TMP DP  RH WIND       PRES   REMARKS
GRAND JUNCTION MOCLDY    58  35  42 W13G28    29.91R
MONTROSE       LGT RAIN  55  36  48 W14G21    29.95R
EAGLE          CLOUDY    45  43  93 S7        30.04F
RIFLE          MOCLDY    56  36  47 E8        29.92R
DELTA          CLOUDY    61  35  37 SW10G17   29.91R
NUCLA          FAIR      54  32  43 NW3       29.99R
$$

COZ017>023-064>068-270400-
...SOUTHWEST COLORADO...

CITY           SKY/WX    TMP DP  RH WIND       PRES   REMARKS
DURANGO        MOCLDY    52  27  38 W12       29.94R
CORTEZ         FAIR      47  34  60 E3        29.96R
PAGOSA SPRINGS FAIR      47  28  47 NE5       29.97S
TELLURIDE      MOCLDY    39  35  86 SE3       30.07
WOLF CREEK PAS   N/A     27  23  86 NE5       30.13F WCI  21
$$

COZ009-010-012-014-032>034-037-058>063-270400-
...CENTRAL COLORADO...

CITY           SKY/WX    TMP DP  RH WIND       PRES   REMARKS
ASPEN          CLOUDY    46  33  60 N3        30.00R
BUENA VISTA    LGT RAIN  42  37  84 CALM      30.01R
COPPER MTN     NOT AVBL
BERTHOUD PASS  HAZE      25  16  68 N7        30.12F VSB<1/4 WCI  17
COTTONWOOD PAS LGT SNOW  36  34  93 CALM      30.05S
GUNNISON       CLOUDY    45  34  65 N12G22    30.00S
KREMMLING      FAIR      46  32  57 W13       29.98F
LEADVILLE      LGT SNOW  32  30  92 N10       30.05R FOG     WCI  24
MONARCH PASS   SNOW      28  27  93 W10       30.20S VSB 1/4 WCI  19
SALIDA         CLOUDY    43  40  88 CALM      30.07S
SUNLIGHT       CLOUDY    34  32  93 NE6       30.15R WCI  29
WILKERSON PASS SNOW      30  28  93 N9G16     30.11R VSB 1/2 WCI  22
$$

COZ069>075-270400-
...SAN LUIS VALLEY/SANGRE DE CRISTO MOUNTAINS...

CITY           SKY/WX    TMP DP  RH WIND       PRES   REMARKS
ALAMOSA        FAIR      45  35  68 SE5       29.96S
LA VETA PASS   CLOUDY    34  32  93 SW3       30.03S
SAGUACHE       CLOUDY    46  30  53 NW15      29.98S
$$

COZ035-036-038>040-270400-
...NORTHERN COLORADO FRONT RANGE...

CITY           SKY/WX    TMP DP  RH WIND       PRES   REMARKS
DENVER INTL AP LGT RAIN  45  43  93 SE9       29.92F
DMNS CITY PARK   N/A     48  46  95 E12       29.92F
AURORA         LGT RAIN  45  45  99 E5        29.94S
FRONT RANGE AP LGT RAIN  45  43  93 SE7       29.95S
ERIE MUNI ARPT CLOUDY    50  45  82 SE6       29.92S
BOULDER MUN AP FAIR      50  45  81 CALM      29.91R
CENTENNIAL     LGT RAIN  46  42  86 NE3       29.94S
BROOMFIELD     CLOUDY    48  45  87 E6        29.93S
FORT COLLINS   FAIR      48  43  81 CALM      29.92S
LONGMONT       FAIR      51  46  82 CALM      29.93S
$$

COZ041-046-047-076>085-087-088-270400-
...PIKES PEAK/PALMER DIVIDE AND SOUTHERN FOOTHILLS...

CITY           SKY/WX    TMP DP  RH WIND       PRES   REMARKS
COLO. SPRINGS  MOCLDY    44  41  89 NW10      29.94R
A. F. ACADEMY  MOCLDY    43  39  87 N7        29.93F
SCHRIEVER AFB  NOT AVBL
ELLICOTT       MOCLDY   N/A N/A N/A N20G30    29.89R
FALCON         FAIR      38  36  92 NW8       29.94R
FORT CARSON    MOCLDY    46  41  83 N18       29.90R
LIMON          MOCLDY    40  38  93 N17       29.83F
MONUMENT HILL  RAIN      36  36 100 NW3       29.95F
TRINIDAD       MOCLDY    52  38  58 N7        29.88R
$$

COZ042>045-048>051-090-091-270400-
...NORTHEAST COLORADO...

CITY           SKY/WX    TMP DP  RH WIND       PRES   REMARKS
GREELEY ARPT   FAIR      50  46  87 S5        29.90F
AKRON          RAIN      48  45  89 SW17      29.91R
BURLINGTON     FAIR      49  40  71 NW33G44   29.74F
WRAY           NOT AVBL
STERLING       LGT RAIN  54  46  76 NW10G16   29.86R
HOLYOKE        NOT AVBL
FORT MORGAN    RAIN      49  46  90 W6        29.91S
$$

COZ086-089-092>099-270400-
...SOUTHEAST COLORADO...

CITY           SKY/WX    TMP DP  RH WIND       PRES   REMARKS
PUEBLO         FAIR      53  39  59 N20G29    29.84R
LA JUNTA       FAIR      52  44  74 N16       29.82R
LAMAR          FAIR      55  43  63 NW21      29.78R
SPRINGFIELD      N/A     53  42  66 NW10      29.76R
$$






000
ASUS45 KBOU 261907
RWRCO

WEATHER ROUNDUP FOR COLORADO
NATIONAL WEATHER SERVICE DENVER/BOULDER CO
100 PM MDT THU MAY 26 2016

NOTE: "FAIR" INDICATES FEW OR NO CLOUDS BELOW 12000 FEET WITH NO
SIGNIFICANT WEATHER AND/OR OBSTRUCTIONS TO VISIBILITY.

COZ001>005-013-030-031-262000-
...NORTHWEST COLORADO...

CITY           SKY/WX    TMP DP  RH WIND       PRES   REMARKS
CRAIG          FAIR      62  34  35 VRB3      29.96F
HAYDEN         FAIR      54  36  50 SW12      29.97F
MEEKER         FAIR      63  33  32 NE12G21   29.94F
MOUNT WERNER   NOT AVBL
STEAMBOAT SPGS FAIR      61  36  40 SW16G26   29.94S
WALDEN         FAIR      55  18  22 NW6       30.00F
$$

COZ006>008-011-262000-
...WEST CENTRAL VALLEYS...

CITY           SKY/WX    TMP DP  RH WIND       PRES   REMARKS
GRAND JUNCTION FAIR      70  19  14 CALM      29.85F
MONTROSE       PTSUNNY   60  26  27 S23G30    29.95R
EAGLE          MOSUNNY   66  19  16 NE12      29.92F
RIFLE          FAIR      67  21  17 S5        29.88F
DELTA          NOT AVBL
NUCLA          CLOUDY    61  23  23 SE20      29.96R
$$

COZ017>023-064>068-262000-
...SOUTHWEST COLORADO...

CITY           SKY/WX    TMP DP  RH WIND       PRES   REMARKS
DURANGO        CLOUDY    56  27  32 NW10      29.97F THUNDER
CORTEZ         PTSUNNY   64  19  17 W10       29.92F
PAGOSA SPRINGS FAIR      56  26  31 W18G25    30.00R
TELLURIDE      CLOUDY    46  23  39 SE13      30.07S THUNDER
WOLF CREEK PAS TSTM      32  23  69 SW15G25   30.16S WCI  22
$$

COZ009-010-012-014-032>034-037-058>063-262000-
...CENTRAL COLORADO...

CITY           SKY/WX    TMP DP  RH WIND       PRES   REMARKS
ASPEN          FAIR      60  18  19 SW6       29.95F
BUENA VISTA    FAIR      57  15  19 SW16      29.97F
COPPER MTN     NOT AVBL
BERTHOUD PASS  TSTM      27  16  63 N9G20     30.17F WCI  17
COTTONWOOD PAS CLOUDY    48  21  34 S20G28    30.07S
GUNNISON       FAIR      57  19  23 SW12G21   29.99S
KREMMLING      FAIR      63  10  13 CALM      29.94F
LEADVILLE      FAIR      44  18  35 VRB7G16   30.06S
MONARCH PASS   LGT SNOW  30  27  86 NW13G21   30.25F VSB 1   WCI  20
SALIDA         PTSUNNY   57  26  30 W23G29    30.03R
SUNLIGHT       CLOUDY    41  19  42 NW5       30.15S
WILKERSON PASS TSTM      36  27  69 CALM      30.15S
$$

COZ069>075-262000-
...SAN LUIS VALLEY/SANGRE DE CRISTO MOUNTAINS...

CITY           SKY/WX    TMP DP  RH WIND       PRES   REMARKS
ALAMOSA        PTSUNNY   58  24  27 W21G26    29.92F
LA VETA PASS   PTSUNNY   41  36  81 NE15G23   30.08F THUNDER
SAGUACHE       CLOUDY    55  23  28 NW16      29.98S
$$

COZ035-036-038>040-262000-
...NORTHERN COLORADO FRONT RANGE...

CITY           SKY/WX    TMP DP  RH WIND       PRES   REMARKS
DENVER INTL AP PTSUNNY   63  45  51 E12       29.90F THUNDER
DMNS CITY PARK   N/A     62  42  47 N13       29.90F
AURORA         PTSUNNY   64  47  54 E12       29.90F
FRONT RANGE AP CLOUDY    64  45  48 E10       29.92F
ERIE MUNI ARPT FAIR      63  44  49 E7        29.92S
BOULDER MUN AP CLOUDY    61  41  48 N3        29.91F
CENTENNIAL     CLOUDY    62  42  47 N12       29.90F THUNDER
BROOMFIELD     PTSUNNY   61  43  51 W9        29.94F
FORT COLLINS   PTSUNNY   54  41  62 E17       29.94R THUNDER
LONGMONT       CLOUDY    65  44  46 CALM      29.94S
$$

COZ041-046-047-076>085-087-088-262000-
...PIKES PEAK/PALMER DIVIDE AND SOUTHERN FOOTHILLS...

CITY           SKY/WX    TMP DP  RH WIND       PRES   REMARKS
COLO. SPRINGS  PTSUNNY   65  41  41 E10       29.90F
A. F. ACADEMY  CLOUDY    61  37  41 SE6       29.91F
SCHRIEVER AFB  NOT AVBL
ELLICOTT       FAIR     N/A N/A N/A E16G28    29.88F
FALCON         PTSUNNY   66  40  38 NE10G18   29.94F
FORT CARSON    PTSUNNY   66  44  44 SE10      29.87F
LIMON          FAIR      67  44  43 E14G22    29.89F
MONUMENT HILL  FAIR      57  41  54 E12       29.95F
TRINIDAD       FAIR      70  38  31 E13       29.84F
$$

COZ042>045-048>051-090-091-262000-
...NORTHEAST COLORADO...

CITY           SKY/WX    TMP DP  RH WIND       PRES   REMARKS
GREELEY ARPT   CLOUDY    61  39  44 NE6       29.92F
AKRON          FAIR      70  45  40 E18G25    29.90F
BURLINGTON     PTSUNNY   73  50  44 E18G28    29.84F
WRAY           NOT AVBL
STERLING       CLOUDY    70  43  37 N12       29.89F
HOLYOKE        NOT AVBL
FORT MORGAN    CLOUDY    69  39  34 NE12G24   29.90F
$$

COZ086-089-092>099-262000-
...SOUTHEAST COLORADO...

CITY           SKY/WX    TMP DP  RH WIND       PRES   REMARKS
PUEBLO         PTSUNNY   73  46  38 NE5       29.82F
LA JUNTA       FAIR      76  51  41 MISG      29.78F
LAMAR          FAIR      76  56  49 NE14G21   29.76F
SPRINGFIELD      N/A     74  50  42 NE10G18   29.79F
$$






000
ASUS45 KBOU 261707
RWRCO

WEATHER ROUNDUP FOR COLORADO
NATIONAL WEATHER SERVICE DENVER/BOULDER CO
1100 AM MDT THU MAY 26 2016

NOTE: "FAIR" INDICATES FEW OR NO CLOUDS BELOW 12000 FEET WITH NO
SIGNIFICANT WEATHER AND/OR OBSTRUCTIONS TO VISIBILITY.

COZ001>005-013-030-031-261800-
...NORTHWEST COLORADO...

CITY           SKY/WX    TMP DP  RH WIND       PRES   REMARKS
CRAIG          FAIR      58  37  45 VRB7      29.99F
HAYDEN         FAIR      55  32  41 W10       29.99F
MEEKER         FAIR      60  34  37 VRB6      29.96F
MOUNT WERNER   NOT AVBL
STEAMBOAT SPGS FAIR      56  30  36 W6        29.97F
WALDEN         FAIR      54  27  35 W6        30.04F
$$

COZ006>008-011-261800-
...WEST CENTRAL VALLEYS...

CITY           SKY/WX    TMP DP  RH WIND       PRES   REMARKS
GRAND JUNCTION FAIR      68  26  20 S8        29.88F
MONTROSE       FAIR      66  19  16 NE9       29.93F
EAGLE          NOT AVBL
RIFLE          FAIR      63  27  25 CALM      29.91F
DELTA          NOT AVBL
NUCLA          FAIR      64  19  17 SW8       29.97F
$$

COZ017>023-064>068-261800-
...SOUTHWEST COLORADO...

CITY           SKY/WX    TMP DP  RH WIND       PRES   REMARKS
DURANGO        FAIR      59  23  25 VRB3      29.99F
CORTEZ         FAIR      64  23  21 SW12G17   29.96F
PAGOSA SPRINGS CLOUDY    54  21  27 SW6       30.02F
TELLURIDE      CLOUDY    46  20  35 SW10G17   30.08S
WOLF CREEK PAS CLOUDY    34  21  60 SW9G18    30.19F WCI  26
$$

COZ009-010-012-014-032>034-037-058>063-261800-
...CENTRAL COLORADO...

CITY           SKY/WX    TMP DP  RH WIND       PRES   REMARKS
ASPEN          FAIR      54  26  34 NE8       29.98F
BUENA VISTA    FAIR      56  19  23 S15G22    30.01S
COPPER MTN     NOT AVBL
BERTHOUD PASS  PTSUNNY   30  19  64 E12G28    30.19F WCI  21
COTTONWOOD PAS CLOUDY    45  27  49 SW16G25   30.11R
GUNNISON       FAIR      55  19  24 E3        30.02F
KREMMLING      FAIR      55  27  33 CALM      30.00F
LEADVILLE      FAIR      49  10  20 MISG      30.06F
SALIDA         PTSUNNY   58  21  24 NE3       30.07F
SUNLIGHT       FAIR      45  18  33 CALM      30.16F
WILKERSON PASS PTSUNNY   39  23  52 CALM      30.17F
$$

COZ069>075-261800-
...SAN LUIS VALLEY/SANGRE DE CRISTO MOUNTAINS...

CITY           SKY/WX    TMP DP  RH WIND       PRES   REMARKS
ALAMOSA        FAIR      61  23  23 CALM      29.97F
LA VETA PASS   DRIZZLE   37  34  87 N3        30.11F
SAGUACHE       FAIR      61  19  20 S5        30.00F
$$

COZ035-036-038>040-261800-
...NORTHERN COLORADO FRONT RANGE...

CITY           SKY/WX    TMP DP  RH WIND       PRES   REMARKS
DENVER INTL AP PTSUNNY   63  44  50 E8        29.94F
DMNS CITY PARK   N/A     64  43  46 E13       29.93F
AURORA         PTSUNNY   63  44  49 VRB6      29.95F
FRONT RANGE AP NOT AVBL
ERIE MUNI ARPT CLOUDY    63  39  41 E3        29.94F
BOULDER MUN AP PTSUNNY   64  37  36 E5        29.94F
CENTENNIAL     FAIR      61  42  49 S6        29.95F
BROOMFIELD     PTSUNNY   63  39  42 E5        29.96F
FORT COLLINS   FAIR      64  39  39 E6        29.94F
LONGMONT       FAIR      69  39  33 E10       29.95F
$$

COZ041-046-047-076>085-087-088-261800-
...PIKES PEAK/PALMER DIVIDE AND SOUTHERN FOOTHILLS...

CITY           SKY/WX    TMP DP  RH WIND       PRES   REMARKS
COLO. SPRINGS  PTSUNNY   64  41  42 VRB3      29.97F
A. F. ACADEMY  CLOUDY    59  41  51 VRB1      29.97F
SCHRIEVER AFB  NOT AVBL
ELLICOTT       FAIR     N/A N/A N/A NE10G17   29.94F
FALCON         FAIR      62  40  45 SE5       30.00F
FORT CARSON    FAIR      64  45  51 NE10      29.93F
LIMON          FAIR      66  46  48 NE9G16    29.93F
MONUMENT HILL  FAIR      55  41  58 CALM      30.01F
TRINIDAD       FAIR      65  45  48 NE7       29.93F
$$

COZ042>045-048>051-090-091-261800-
...NORTHEAST COLORADO...

CITY           SKY/WX    TMP DP  RH WIND       PRES   REMARKS
GREELEY ARPT   PTSUNNY   63  41  45 SE6       29.95F
AKRON          FAIR      68  41  37 E16       29.93F
BURLINGTON     FAIR      71  48  43 NE24G30   29.87F
WRAY           NOT AVBL
STERLING       CLOUDY    64  48  55 E6        29.91F THUNDER
HOLYOKE        NOT AVBL
FORT MORGAN    PTSUNNY   67  38  34 NE9       29.94F THUNDER
$$

COZ086-089-092>099-261800-
...SOUTHEAST COLORADO...

CITY           SKY/WX    TMP DP  RH WIND       PRES   REMARKS
PUEBLO         FAIR      70  48  45 VRB3      29.88F
LA JUNTA       FAIR      71  50  47 N8G16     29.85F
LAMAR          FAIR      72  55  55 N9        29.80F
SPRINGFIELD      N/A     71  51  49 N10G18    29.83F
$$






    US Dept of Commerce
    National Oceanic and Atmospheric Administration
    National Weather Service
    1325 East West Highway
    Silver Spring, MD 20910
    Page Author: NWS Internet Services Team
Disclaimer
Information Quality
Credits
Glossary
Privacy Policy
Freedom of Information Act (FOIA)
About Us
Career Opportunities